Weather in Molvotitsy

Russia / Novgorod Oblast     57°24′36″N   32°19′49″E
temp.,
°C
wind,
m/s
gust,
m/s
humid.,
%
clouds,
%
prec.,
mm/h
press.,
hPa
HPBL,
m
3 march, wed
wed300:000nw4109141 0.2 1019731
03:00−2wnw3109456 0.3 1020462
06:00−1w499572 0.0 1019494
09:00−1w498986 0.1 1019695
12:000w5885100 0.0 1017747
15:00+1w5981100 0.1 1015958
18:00+1wsw41282100 0.0 10111031
21:00+2w41393100 0.1 1009819
4 march, thu
thu400:00+1w61397100 0.1 1006774
03:00+1w51197100 0.6 1005749
06:000nw3997100 0.4 1003568
09:00−2nnw2678100 0.9 1003513
12:00−1n2465100 0.0 1002781
15:000nnw2363100 0.0 10021046
18:00−2nw257716 0.0 1002186
21:00−4w118111 0.0 100421
5 march, fri
fri500:00−4nw599090 0.8 1004623
03:00−5nnw488995 1.5 1006731
06:00−6nw3785100 0.3 1007695
09:00−6nw368398 0.3 1009753
12:00−4nw3571100 0.1 10101066
15:00−4nw4662100 0.3 10111284
18:00−5nnw267294 0.2 1012573
21:00−7nnw278874 0.2 1015398
6 march, sat
sat600:00−8n268922 0.0 1017261
03:00−9wnw118615 0.0 101821
06:00−8wsw258873 0.0 1018354
09:00−7w368886 0.1 1018521
12:00−5w467194 0.0 1017933
15:00−3wsw586066 0.0 10151236
18:00−4sw51262100 0.0 10111396
21:00−4sw81690100 0.6 10061418
7 march, sun
sun700:00−3wsw81791100 1.6 10011388
03:00−2wsw81892100 3.4 9951366
06:00−1wsw81893100 1.6 9921461
09:00−5w31464100 3.6 9921362
12:00−4w9176192 0.3 9922468
15:00−3w8167296 0.5 9911887
18:00−5nw81488100 1.3 9911325
21:00−6wnw71392100 1.9 9941268